Weather History for KAIG - August, 2013

Change the Weather History Date:

Monday, August 26, 2013

  Actual Average (KAUW) Record (KAUW)
Temperature  
Mean Temperature 74 °F 66 °F  
Max Temperature 83 °F 76 °F 93 °F (1953)
Min Temperature 65 °F 56 °F 36 °F (1915)
Degree Days  
Heating Degree Days 0 2  
Month to date heating degree days 31  
Since 1 June heating degree days 143  
Since 1 July heating degree days 54  
Cooling Degree Days 9 3  
Month to date cooling degree days 103  
Year to date cooling degree days 363  
Since 1 June cooling degree days 344  
Growing Degree Days 24 (Base 50)    
Moisture  
Dew Point 70 °F    
Average Humidity 86    
Maximum Humidity 99    
Minimum Humidity 68    
Precipitation  
Precipitation 0.58 in 0.13 in 1.69 in (2013)
Month to date precipitation 3.53  
Year to date precipitation 21.58  
Snow  
Snow 0.00 in 0.00 in 0.00 in ()
Month to date snowfall 0.0  
Since 1 June snowfall 0.0  
Since 1 July snowfall 0.0  
Snow Depth -    
Sea Level Pressure  
Sea Level Pressure 30.03 in    
Wind  
Wind Speed 9 mph (SW)    
Max Wind Speed 16 mph    
Max Gust Speed 18 mph    
Visibility 10 miles    
Events Rain    
T = Trace of Precipitation, MM = Missing Value Source: NWS Daily Summary

Daily Weather History Graph

Daily Weather History Graph

Search for Another Location

Airport or City:

Trip Planner

Search our weather history database for the weather conditions in past years. The results will help you decide how hot, cold, wet, or windy it might be!

Date:

Astronomy

Aug. 26, 2013 Rise Set
Actual Time 6:11 AM CDT 7:44 PM CDT
Civil Twilight 5:40 AM CDT 8:14 PM CDT
Nautical Twilight 5:02 AM CDT 8:52 PM CDT
Astronomical Twilight 4:22 AM CDT 9:32 PM CDT
Moon 10:35 PM CDT (8/26) 12:31 PM CDT (8/26)
Length of Visible Light 14h 34m
Length of Day
13h 32m
Waning Gibbous, 66% of the Moon is Illuminated
Aug 26
Waning Gibbous
Aug 28
Last Quarter
Sep 5
New
Sep 12
First Quarter
Sep 19
Full

Hourly Weather History & Observations

Time (CDT) Temp. Heat Index Dew Point Humidity Pressure Visibility Wind Dir Wind Speed Gust Speed Precip Events Conditions
12:15 AM 75.4 °F - 69.8 °F 83% 30.04 in 10.0 mi SW 13.8 mph 18.4 mph N/A   Clear
12:35 AM 75.4 °F - 69.8 °F 83% 30.06 in 10.0 mi WSW 11.5 mph 17.3 mph N/A   Clear
12:55 AM 75.2 °F - 69.6 °F 83% 30.06 in 10.0 mi WSW 9.2 mph - N/A   Clear
1:15 AM 75.0 °F - 69.4 °F 83% 30.05 in 10.0 mi WSW 10.4 mph - N/A   Clear
1:35 AM 75.0 °F - 69.3 °F 82% 30.04 in 10.0 mi WSW 9.2 mph - N/A   Clear
1:55 AM 74.7 °F - 69.1 °F 83% 30.02 in 10.0 mi WSW 11.5 mph - N/A   Clear
2:15 AM 74.3 °F - 68.9 °F 83% 30.02 in 10.0 mi SW 10.4 mph 16.1 mph N/A   Clear
2:35 AM 74.7 °F - 68.7 °F 82% 30.03 in 10.0 mi WSW 10.4 mph - N/A   Clear
2:55 AM 74.5 °F - 68.4 °F 81% 30.04 in 10.0 mi WSW 9.2 mph - N/A   Clear
3:15 AM 74.3 °F - 68.4 °F 82% 30.04 in 10.0 mi WSW 10.4 mph - N/A   Clear
3:35 AM 74.3 °F - 68.0 °F 81% 30.04 in 10.0 mi WSW 9.2 mph - N/A   Clear
3:55 AM 74.3 °F - 68.0 °F 81% 30.05 in 10.0 mi WSW 8.1 mph - N/A   Mostly Cloudy
4:15 AM 74.3 °F - 68.0 °F 81% 30.06 in 10.0 mi West 6.9 mph - N/A   Overcast
4:35 AM 74.1 °F - 68.0 °F 81% 30.06 in 10.0 mi WNW 6.9 mph - N/A   Overcast
4:55 AM 72.7 °F - 63.1 °F 72% 30.08 in 10.0 mi North 10.4 mph - N/A   Overcast
5:15 AM 70.5 °F - 64.8 °F 82% 30.10 in 10.0 mi WNW 6.9 mph - N/A Rain Rain
5:35 AM 68.2 °F - 65.5 °F 91% 30.11 in 10.0 mi NW 6.9 mph - 0.04 in Rain Rain
5:55 AM 66.6 °F - 65.3 °F 96% 30.11 in 5.0 mi North 4.6 mph - 0.10 in Rain Rain
6:15 AM 66.2 °F - 64.9 °F 96% 30.11 in 3.0 mi NNE 6.9 mph - 0.16 in Rain Heavy Rain
6:35 AM 66.2 °F - 65.3 °F 97% 30.13 in 5.0 mi Calm Calm - 0.22 in Rain Heavy Rain
6:55 AM 65.7 °F - 65.3 °F 99% 30.10 in 10.0 mi SSW 10.4 mph - 0.27 in Rain Light Rain
7:15 AM 65.7 °F - 65.3 °F 99% 30.08 in 10.0 mi South 10.4 mph - 0.02 in Rain Light Rain
7:35 AM 65.5 °F - 65.3 °F 99% 30.10 in 7.0 mi South 12.7 mph - 0.04 in Rain Light Rain
7:55 AM 65.5 °F - 64.8 °F 98% 30.07 in 7.0 mi South 15.0 mph - 0.06 in Rain Rain
8:15 AM 65.5 °F - 64.6 °F 97% 30.06 in 10.0 mi SSW 16.1 mph - 0.01 in Rain Light Rain
8:35 AM 65.8 °F - 64.4 °F 95% 30.06 in 10.0 mi SW 9.2 mph - 0.04 in Rain Light Rain
8:55 AM 65.7 °F - 64.8 °F 97% 30.06 in 10.0 mi SW 9.2 mph - 0.04 in Rain Light Rain
9:15 AM 66.2 °F - 65.3 °F 97% 30.08 in 10.0 mi WSW 11.5 mph 18.4 mph N/A   Mostly Cloudy
9:35 AM 66.2 °F - 65.3 °F 97% 30.08 in 10.0 mi WSW 9.2 mph - N/A   Scattered Clouds
9:55 AM 66.4 °F - 65.7 °F 98% 30.06 in 10.0 mi WSW 8.1 mph - N/A   Scattered Clouds
10:15 AM 67.1 °F - 66.2 °F 97% 30.06 in 10.0 mi WSW 6.9 mph - N/A   Clear
10:35 AM 67.8 °F - 66.7 °F 96% 30.05 in 10.0 mi WSW 9.2 mph - N/A   Clear
10:55 AM 68.0 °F - 66.9 °F 96% 30.04 in 10.0 mi WSW 10.4 mph - N/A   Clear
11:15 AM 68.9 °F - 67.6 °F 96% 30.05 in 10.0 mi West 8.1 mph - N/A   Scattered Clouds
11:35 AM 69.8 °F - 68.2 °F 95% 30.05 in 10.0 mi WNW 4.6 mph - N/A   Mostly Cloudy
11:55 AM 73.6 °F - 69.6 °F 87% 30.04 in 10.0 mi West 9.2 mph - N/A   Scattered Clouds
12:15 PM 75.7 °F - 69.6 °F 81% 30.04 in 10.0 mi West 9.2 mph 16.1 mph N/A   Clear
12:35 PM 77.7 °F - 70.0 °F 77% 30.04 in 10.0 mi West 10.4 mph - N/A   Clear
12:55 PM 78.3 °F - 69.6 °F 75% 30.03 in 10.0 mi WSW 10.4 mph - N/A   Clear
1:15 PM 79.2 °F - 70.0 °F 73% 30.03 in 10.0 mi West 9.2 mph - N/A   Clear
1:35 PM 80.8 °F 84.4 °F 70.7 °F 71% 30.03 in 10.0 mi WNW 5.8 mph - N/A   Scattered Clouds
1:55 PM 81.3 °F 85.2 °F 70.7 °F 70% 30.02 in 10.0 mi WNW 6.9 mph - N/A   Mostly Cloudy
2:15 PM 82.2 °F 86.9 °F 71.4 °F 70% 30.02 in 10.0 mi West 9.2 mph - N/A   Overcast
2:35 PM 82.6 °F 87.3 °F 71.6 °F 69% 30.02 in 10.0 mi West 9.2 mph - N/A   Overcast
2:55 PM 82.9 °F 88.0 °F 72.0 °F 69% 30.02 in 10.0 mi West 6.9 mph - N/A   Overcast
3:15 PM 82.0 °F 86.7 °F 71.8 °F 71% 30.02 in 10.0 mi West 4.6 mph - N/A   Overcast
3:35 PM 83.8 °F 89.5 °F 72.3 °F 68% 30.01 in 10.0 mi NW 5.8 mph - N/A   Overcast
3:55 PM 83.5 °F 89.4 °F 72.7 °F 70% 30.01 in 10.0 mi WSW 4.6 mph - N/A   Overcast
4:15 PM 83.1 °F 88.6 °F 72.3 °F 70% 30.00 in 10.0 mi WSW 3.5 mph - N/A   Overcast
4:35 PM 82.4 °F 87.2 °F 71.8 °F 70% 30.01 in 10.0 mi Calm Calm - N/A   Overcast
4:55 PM 81.5 °F 86.7 °F 73.2 °F 76% 30.00 in 10.0 mi NE 4.6 mph - N/A   Overcast
5:15 PM 81.1 °F 86.2 °F 73.2 °F 77% 30.01 in 10.0 mi East 4.6 mph - N/A   Mostly Cloudy
5:35 PM 80.6 °F 85.4 °F 73.6 °F 79% 30.00 in 10.0 mi East 4.6 mph - N/A   Scattered Clouds
5:55 PM 79.2 °F - 73.9 °F 84% 30.00 in 10.0 mi East 4.6 mph - N/A   Clear
6:15 PM 79.3 °F - 74.7 °F 86% 29.99 in 10.0 mi East 3.5 mph - N/A   Scattered Clouds
6:35 PM 78.8 °F - 74.3 °F 86% 29.98 in 10.0 mi ESE 4.6 mph - N/A   Scattered Clouds
6:55 PM 78.8 °F - 74.5 °F 87% 29.98 in 10.0 mi ESE 4.6 mph - N/A   Clear
7:15 PM 77.2 °F - 73.9 °F 90% 29.98 in 10.0 mi ESE 3.5 mph - N/A   Clear
7:35 PM 75.6 °F - 73.4 °F 93% 29.98 in 10.0 mi ESE 4.6 mph - N/A   Clear
7:55 PM 74.7 °F - 72.9 °F 94% 29.98 in 10.0 mi ESE 4.6 mph - N/A   Clear
8:15 PM 74.7 °F - 72.7 °F 94% 29.98 in 10.0 mi ESE 4.6 mph - N/A   Clear
8:35 PM 73.8 °F - 72.3 °F 95% 29.98 in 10.0 mi ESE 3.5 mph - N/A   Clear
8:55 PM 74.7 °F - 72.5 °F 93% 29.98 in 10.0 mi SSE 5.8 mph - N/A   Clear
9:15 PM 75.2 °F - 72.9 °F 92% 29.98 in 10.0 mi SSE 5.8 mph - N/A   Scattered Clouds
9:35 PM 75.4 °F - 72.9 °F 92% 29.98 in 10.0 mi SSE 5.8 mph - N/A   Scattered Clouds
9:55 PM 75.4 °F - 72.9 °F 92% 29.98 in 10.0 mi South 4.6 mph - N/A Rain Light Rain
10:15 PM 75.2 °F - 73.0 °F 93% 29.98 in 10.0 mi South 5.8 mph - 0.01 in Rain Light Rain
10:35 PM 74.5 °F - 73.4 °F 96% 29.97 in 7.0 mi South 5.8 mph - 0.01 in Rain Light Rain
10:55 PM 74.3 °F - 72.9 °F 95% 29.96 in 10.0 mi SSW 8.1 mph - 0.03 in Rain Light Rain
11:15 PM 74.5 °F - 73.0 °F 95% 29.98 in 7.0 mi WSW 8.1 mph - 0.02 in Rain Light Rain
11:35 PM 73.9 °F - 73.0 °F 97% 30.00 in 5.0 mi Calm Calm - 0.05 in Rain Rain
11:55 PM 73.8 °F - 73.0 °F 98% 30.01 in 5.0 mi ENE 3.5 mph - 0.08 in Rain Rain